Location: Sternwarte ZA, Rosenfeld-Brittheim
(48.2889°N, 8.6789°E)
Time: 04:39:44
(UTC+01:00)

ISS - Pass Details

Date: 28 November 2020
Orbit: 418 x 421 km, 51.6° (Epoch: 26 November)

Event Time Altitude Azimuth Distance (km) Brightness Sun altitude
Rises 18:10:46 0° 271° (W) 2,362 1.6 -15.4°
Reaches altitude 10° 18:12:54 10° 277° (W) 1,499 0.2 -15.8°
Maximum altitude 18:16:11 48° 353° (N) 560 -3.2 -16.3°
Enters shadow 18:17:04 37° 39° (NE) 675 -3.1 -16.4°
